Location: Del Amo
(33.8464°N, 118.2104°W)
Time: 07:37:31
(UTC+00:00)

Vanguard 3 - Pass Details

Date: 16 September 2024
Orbit: 507 x 3223 km, 33.3° (Epoch: 09 October)

Event Time Altitude Azimuth Distance (km) Brightness Sun altitude
Rises 21:54:00 0° 282° (WNW) 6,263 12.0 46.7°
Reaches altitude 10° 22:00:16 10° 268° (W) 4,706 11.8 45.7°
Maximum altitude 22:07:48 19° 231° (SW) 3,280 11.6 44.4°
Drops below altitude 10° 22:13:20 10° 190° (S) 3,281 10.9 43.5°
Sets 22:16:41 0° 171° (S) 3,844 10.9 42.9°
